KE7KUS-14 Weather Reports


time (UTC)temp
C
wind
direction
speed
KPH
gust
KPH
rain 1hr
cm
rain 24hr
cm
rain mn
cm
humidity
%
barometer
mb
20260510204745 23 323 11.3 27.4 0.00 0.00 0.00 20 1029.2
20260510203718 23 352 11.3 22.5 0.00 0.00 0.00 19 1029.1
20260510202732 23 30 4.8 14.5 0.00 0.00 0.00 21 1029.4
20260510201729 22 281 8.0 14.5 0.00 0.00 0.00 22 1029.3
20260510200743 23 321 4.8 25.7 0.00 0.00 0.00 20 1029.5
20260510195759 23 281 6.4 14.5 0.00 0.00 0.00 19 1029.5
20260510194710 22 41 8.0 17.7 0.00 0.00 0.00 21 1029.3
20260510193727 21 184 3.2 20.9 0.00 0.00 0.00 28 1029.3
20260510192741 21 183 4.8 9.7 0.00 0.00 0.00 26 1029.3
20260510191132 20 81 1.6 3.2 0.00 0.00 0.00 29 1029.7
20260510190147 20 1 3.2 11.3 0.00 0.00 0.00 26 1029.7
20260510185204 20 17 8.0 25.7 0.00 0.00 0.00 27 1029.6
20260510184114 20 346 3.2 12.9 0.00 0.00 0.00 25 1029.7
20260510183128 20 92 0.0 1.6 0.00 0.00 0.00 24 1029.5
20260510182145 21 51 1.6 4.8 0.00 0.00 0.00 23 1029.5
20260510181221 20 350 3.2 8.0 0.00 0.00 0.00 24 1029.6
20260510180111 20 359 3.2 8.0 0.00 0.00 0.00 26 1029.6
20260510175126 20 43 1.6 8.0 0.00 0.00 0.00 24 1029.7
20260510174140 20 21 3.2 12.9 0.00 0.00 0.00 23 1029.5
20260510173155 20 43 3.2 11.3 0.00 0.00 0.00 24 1029.6
20260510172211 21 86 1.6 8.0 0.00 0.00 0.00 25 1029.5
20260510171122 21 79 1.6 8.0 0.00 0.00 0.00 26 1029.4
20260510170138 21 8 6.4 20.9 0.00 0.00 0.00 28 1029.4
20260510165151 20 103 4.8 11.3 0.00 0.00 0.00 28 1029.2
20260510164229 19 129 3.2 8.0 0.00 0.00 0.00 29 1029.3
20260510163119 20 166 4.8 9.7 0.00 0.00 0.00 28 1029.2
20260510162152 20 51 4.8 9.7 0.00 0.00 0.00 28 1029.1
20260510161150 20 108 3.2 12.9 0.00 0.00 0.00 27 1028.9
20260510160203 20 127 6.4 22.5 0.00 0.00 0.00 27 1028.7
20260510155217 21 154 8.0 20.9 0.00 0.00 0.00 27 1028.8
20260510154128 20 71 6.4 17.7 0.00 0.00 0.00 26 1028.9
20260510153205 20 134 6.4 17.7 0.00 0.00 0.00 27 1028.8
20260510152159 20 128 4.8 14.5 0.00 0.00 0.00 26 1028.7
20260510151235 20 110 4.8 12.9 0.00 0.00 0.00 26 1028.5
20260510150126 20 116 8.0 17.7 0.00 0.00 0.00 25 1028.5
20260510145202 20 115 6.4 17.7 0.00 0.00 0.00 26 1028.1
20260510144157 19 124 4.8 20.9 0.00 0.00 0.00 26 1028.1
20260510143231 20 113 6.4 20.9 0.00 0.00 0.00 24 1027.8
20260510142145 19 109 1.6 11.3 0.00 0.00 0.00 24 1027.8
20260510141138 18 134 4.8 11.3 0.00 0.00 0.00 26 1027.9
20260510140153 17 98 4.8 11.3 0.00 0.00 0.00 26 1027.9
20260510135209 16 98 6.4 16.1 0.00 0.00 0.00 28 1027.8
20260510134140 13 133 3.2 11.3 0.00 0.00 0.00 33 1028.0
20260510133135 13 160 4.8 9.7 0.00 0.00 0.00 33 1028.0
20260510132151 12 87 3.2 11.3 0.00 0.00 0.00 36 1027.7
20260510131207 11 122 6.4 12.9 0.00 0.00 0.00 35 1027.3
20260510130221 12 120 3.2 8.0 0.00 0.00 0.00 34 1027.2
20260510125153 12 98 1.6 4.8 0.00 0.00 0.00 33 1027.1
20260510124148 12 147 4.8 11.3 0.00 0.00 0.00 33 1026.6
20260510123204 12 114 1.6 4.8 0.00 0.00 0.00 32 1026.7
20260510122219 12 146 3.2 11.3 0.00 0.00 0.00 31 1026.8
20260510121131 13 142 6.4 12.9 0.00 0.00 0.00 30 1026.3
20260510120146 13 117 3.2 8.0 0.00 0.00 0.00 31 1026.2
20260510115221 12 118 3.2 9.7 0.00 0.00 0.00 32 1026.2
20260510114217 12 120 4.8 12.9 0.00 0.00 0.00 33 1026.2
20260510113128 11 126 3.2 9.7 0.00 0.00 0.00 36 1026.2
20260510112143 11 141 6.4 11.3 0.00 0.00 0.00 35 1026.1
20260510111158 10 121 3.2 9.7 0.00 0.00 0.00 37 1026.1
20260510110214 10 106 3.2 11.3 0.00 0.00 0.00 38 1026.0
20260510105125 11 106 8.0 12.9 0.00 0.00 0.00 37 1026.0
20260510104141 10 88 3.2 8.0 0.00 0.00 0.00 38 1025.8
20260510103216 11 127 6.4 14.5 0.00 0.00 0.00 38 1025.8
20260510102211 11 143 6.4 14.5 0.00 0.00 0.00 37 1025.8
20260510101226 11 127 4.8 11.3 0.00 0.00 0.00 37 1025.6
20260510100138 11 116 6.4 12.9 0.00 0.00 0.00 37 1025.6
20260510095153 11 147 6.4 11.3 0.00 0.00 0.00 37 1025.5
20260510094208 11 138 4.8 9.7 0.00 0.00 0.00 38 1025.5
20260510093223 11 124 3.2 8.0 0.00 0.00 0.00 37 1025.3
20260510092154 11 130 4.8 11.3 0.00 0.00 0.00 35 1025.2
20260510091210 12 124 3.2 9.7 0.00 0.00 0.00 35 1025.3
20260510090204 12 137 3.2 4.8 0.00 0.00 0.00 34 1024.9
20260510085220 12 117 3.2 12.9 0.00 0.00 0.00 33 1024.9
20260510084131 12 145 4.8 11.3 0.00 0.00 0.00 32 1024.6
20260510083147 13 123 1.6 9.7 0.00 0.00 0.00 31 1024.5
20260510082202 13 122 4.8 12.9 0.00 0.00 0.00 30 1024.5
20260510081218 14 139 4.8 9.7 0.00 0.00 0.00 29 1024.5
20260510080233 14 139 3.2 9.7 0.00 0.00 0.00 28 1024.4
20260510075144 13 145 6.4 12.9 0.00 0.00 0.00 28 1024.5
20260510074159 13 126 8.0 12.9 0.00 0.00 0.00 29 1024.6
20260510073215 15 134 3.2 8.0 0.00 0.00 0.00 27 1024.9
20260510072230 14 141 6.4 9.7 0.00 0.00 0.00 26 1024.9
20260510071142 14 127 6.4 12.9 0.00 0.00 0.00 27 1025.1
20260510070217 14 113 3.2 11.3 0.00 0.00 0.00 27 1025.2
20260510065212 13 147 6.4 11.3 0.00 0.00 0.00 29 1025.2
20260510064249 13 130 6.4 12.9 0.00 0.00 0.00 30 1025.0
20260510063159 12 97 1.6 4.8 0.00 0.00 0.00 31 1025.1
20260510062154 12 137 3.2 8.0 0.00 0.00 0.00 33 1025.0
20260510061210 13 120 1.6 3.2 0.00 0.00 0.00 30 1024.9
20260510060224 14 120 3.2 8.0 0.00 0.00 0.00 29 1024.9
20260510055240 15 98 1.6 8.0 0.00 0.00 0.00 28 1024.9
20260510054151 15 134 4.8 9.7 0.00 0.00 0.00 27 1024.9
20260510053227 15 135 3.2 9.7 0.00 0.00 0.00 27 1024.8
20260510052222 16 148 4.8 9.7 0.00 0.00 0.00 26 1024.9
20260510051257 16 141 8.0 12.9 0.00 0.00 0.00 25 1024.7
20260510050210 16 163 6.4 12.9 0.00 0.00 0.00 25 1024.9
20260510045204 16 152 6.4 12.9 0.00 0.00 0.00 25 1025.0
20260510044240 16 171 9.7 14.5 0.00 0.00 0.00 24 1025.1
20260510043237 15 140 6.4 11.3 0.00 0.00 0.00 27 1025.1
20260510042147 15 141 6.4 16.1 0.00 0.00 0.00 27 1025.2
20260510041222 15 134 3.2 9.7 0.00 0.00 0.00 28 1025.0
20260510040237 15 129 4.8 11.3 0.00 0.00 0.00 27 1025.2
20260510035233 15 162 6.4 12.9 0.00 0.00 0.00 27 1024.9
20260510034144 15 150 4.8 11.3 0.00 0.00 0.00 28 1025.0
20260510033200 15 141 4.8 12.9 0.00 0.00 0.00 28 1024.9
20260510032215 16 129 6.4 11.3 0.00 0.00 0.00 27 1024.8
20260510031231 16 133 4.8 12.9 0.00 0.00 0.00 26 1024.6
20260510030305 15 142 6.4 14.5 0.00 0.00 0.00 27 1024.8
20260510025219 15 136 3.2 8.0 0.00 0.00 0.00 28 1024.6
20260510024212 15 131 3.2 9.7 0.00 0.00 0.00 27 1024.5
20260510023249 15 115 3.2 11.3 0.00 0.00 0.00 28 1024.3
20260510022242 16 133 4.8 8.0 0.00 0.00 0.00 27 1024.3
20260510021213 16 106 3.2 9.7 0.00 0.00 0.00 28 1024.1
20260510020207 16 140 3.2 12.9 0.00 0.00 0.00 27 1024.1
20260510015244 17 165 4.8 11.3 0.00 0.00 0.00 26 1024.0
20260510014238 18 126 3.2 8.0 0.00 0.00 0.00 25 1023.8
20260510013151 21 132 1.6 3.2 0.00 0.00 0.00 21 1023.7
20260510012226 21 92 0.0 1.6 0.00 0.00 0.00 21 1023.6
20260510011220 23 108 0.0 8.0 0.00 0.00 0.00 17 1023.6
20260510010235 23 318 3.2 8.0 0.00 0.00 0.00 17 1023.6
20260510005252 23 4 3.2 9.7 0.00 0.00 0.00 16 1023.8
20260510004201 24 200 3.2 14.5 0.00 0.00 0.00 16 1023.7
20260510003217 24 316 4.8 9.7 0.00 0.00 0.00 16 1023.8
20260510002234 24 292 4.8 11.3 0.00 0.00 0.00 15 1023.7
20260510001248 24 242 6.4 16.1 0.00 0.00 0.00 16 1023.8
20260510000201 24 152 4.8 16.1 0.00 0.00 0.00 16 1023.8
20260509235216 24 201 8.0 16.1 0.00 0.00 0.00 15 1023.9
20260509234230 25 323 4.8 16.1 0.00 0.00 0.00 16 1023.9
20260509233246 25 316 4.8 12.9 0.00 0.00 0.00 16 1023.8
20260509232158 24 321 6.4 20.9 0.00 0.00 0.00 18 1024.2
20260509231212 25 247 9.7 22.5 0.00 0.00 0.00 15 1024.2
20260509230229 25 339 3.2 20.9 0.00 0.00 0.00 16 1024.1
20260509225243 24 309 8.0 20.9 0.00 0.00 0.00 17 1024.2
20260509224258 25 234 8.0 16.1 0.00 0.00 0.00 15 1024.4
20260509223211 25 250 8.0 16.1 0.00 0.00 0.00 16 1024.5
20260509222225 25 341 6.4 11.3 0.00 0.00 0.00 17 1024.4
20260509221301 25 219 4.8 17.7 0.00 0.00 0.00 15 1024.7
20260509220255 25 283 3.2 12.9 0.00 0.00 0.00 15 1024.9
20260509215206 24 276 4.8 22.5 0.00 0.00 0.00 15 1024.9
20260509214223 25 317 6.4 12.9 0.00 0.00 0.00 17 1025.2
20260509213237 25 302 11.3 25.7 0.00 0.00 0.00 17 1025.4
20260509212252 24 74 4.8 12.9 0.00 0.00 0.00 17 1025.5
20260509211204 25 322 4.8 14.5 0.00 0.00 0.00 17 1025.6
20260509210220 25 230 6.4 16.1 0.00 0.00 0.00 15 1025.7